When you browse on this site, cookies collect data to enhance your experience and personalize the content and advertising you see.
Visit our Privacy Policy to learn more. By continuing to use the site, you agree to this use of cookies and data.
  • In Denmark
  • List of Countries
  • For 7 days
  • Water Temperature
  • Satellite Maps
  • Weather Map
  • Weather Widgets
  • user-avatar
    Login

    Hourly Weather Alferovo

    Today, 22 July, Monday

    Time Temperature Precipitation Wind Pressure Humidity
    00:00 +15°C° 0 mm 1 mps 745 mmHg 91%
    01:00 +15°C° 0 mm 1 mps 745 mmHg 91%
    02:00 +13°C° 0 mm 0 mps 745 mmHg 91%
    03:00 +14°C° 0 mm 0 mps 745 mmHg 91%
    04:00 +14°C° 0 mm 0 mps 745 mmHg 91%
    05:00 +15°C° 0 mm 0 mps 746 mmHg 91%
    06:00 +18°C° 0 mm 1 mps 745 mmHg 86%
    07:00 +20°C° 0 mm 1 mps 745 mmHg 81%
    08:00 +22°C° 0 mm 1 mps 745 mmHg 75%
    09:00 +23°C° 0 mm 1 mps 745 mmHg 69%
    10:00 +23°C° 0 mm 0 mps 745 mmHg 63%
    11:00 +24°C° 0 mm 0 mps 745 mmHg 58%
    12:00 +26°C° 0 mm 1 mps 744 mmHg 56%
    13:00 +26°C° 0 mm 1 mps 744 mmHg 54%
    14:00 +27°C° 0 mm 2 mps 744 mmHg 53%
    15:00 +26°C° 0.1 mm 2 mps 744 mmHg 59%
    16:00 +25°C° 0.1 mm 2 mps 743 mmHg 66%
    17:00 +25°C° 0.1 mm 2 mps 743 mmHg 72%
    18:00 +23°C° 0.2 mm 2 mps 743 mmHg 78%
    19:00 +20°C° 0.2 mm 2 mps 742 mmHg 84%
    20:00 +18°C° 0.2 mm 2 mps 742 mmHg 90%
    21:00 +18°C° 0.2 mm 2 mps 742 mmHg 91%
    22:00 +18°C° 0.2 mm 2 mps 742 mmHg 92%
    23:00 +19°C° 0.2 mm 1 mps 742 mmHg 94%

    Tomorrow, 23 July, Tuesday

    Time Temperature Precipitation Wind Pressure Humidity
    00:00 +17°C° 0.6 mm 2 mps 741 mmHg 94%
    01:00 +17°C° 0.6 mm 2 mps 741 mmHg 95%
    02:00 +17°C° 0.6 mm 3 mps 741 mmHg 95%
    03:00 +17°C° 0 mm 3 mps 740 mmHg 96%
    04:00 +17°C° 0 mm 3 mps 740 mmHg 96%
    05:00 +17°C° 0 mm 3 mps 740 mmHg 96%
    06:00 +18°C° 0.1 mm 3 mps 740 mmHg 94%
    07:00 +18°C° 0.1 mm 3 mps 740 mmHg 92%
    08:00 +19°C° 0.1 mm 3 mps 740 mmHg 91%
    09:00 +19°C° 0.1 mm 3 mps 740 mmHg 86%
    10:00 +20°C° 0.1 mm 3 mps 740 mmHg 82%
    11:00 +21°C° 0.1 mm 3 mps 740 mmHg 77%
    12:00 +21°C° 0 mm 3 mps 739 mmHg 73%
    13:00 +22°C° 0 mm 3 mps 739 mmHg 70%
    14:00 +24°C° 0 mm 2 mps 739 mmHg 66%
    15:00 +24°C° 0.2 mm 2 mps 739 mmHg 68%
    16:00 +23°C° 0.2 mm 2 mps 739 mmHg 71%
    17:00 +23°C° 0.2 mm 1 mps 739 mmHg 74%
    18:00 +22°C° 0 mm 1 mps 739 mmHg 80%
    19:00 +20°C° 0 mm 1 mps 739 mmHg 85%
    20:00 +16°C° 0 mm 0 mps 739 mmHg 91%
    21:00 +16°C° 0 mm 0 mps 739 mmHg 92%
    22:00 +16°C° 0 mm 0 mps 739 mmHg 92%
    23:00 +15°C° 0 mm 0 mps 740 mmHg 93%

    Day after tomorrow, 24 July, Wednesday

    Time Temperature Precipitation Wind Pressure Humidity
    00:00 +16°C° 0 mm 1 mps 739 mmHg 94%
    01:00 +16°C° 0 mm 1 mps 739 mmHg 94%
    02:00 +16°C° 0 mm 1 mps 739 mmHg 95%
    03:00 +16°C° 0.3 mm 1 mps 739 mmHg 95%
    04:00 +16°C° 0.3 mm 1 mps 739 mmHg 95%
    05:00 +16°C° 0.3 mm 1 mps 739 mmHg 96%
    06:00 +17°C° 0.9 mm 2 mps 739 mmHg 94%
    07:00 +17°C° 0.9 mm 2 mps 739 mmHg 92%
    08:00 +17°C° 0.9 mm 3 mps 739 mmHg 90%
    09:00 +17°C° 0.1 mm 2 mps 739 mmHg 89%
    10:00 +17°C° 0.1 mm 2 mps 740 mmHg 89%
    11:00 +17°C° 0.1 mm 2 mps 740 mmHg 88%
    12:00 +18°C° 0 mm 2 mps 740 mmHg 85%
    13:00 +18°C° 0 mm 2 mps 740 mmHg 82%
    14:00 +18°C° 0 mm 2 mps 740 mmHg 79%
    15:00 +18°C° 0 mm 2 mps 740 mmHg 78%
    16:00 +20°C° 0 mm 1 mps 740 mmHg 77%
    17:00 +20°C° 0 mm 1 mps 740 mmHg 76%
    18:00 +19°C° 0 mm 1 mps 740 mmHg 81%
    19:00 +18°C° 0 mm 1 mps 740 mmHg 85%
    20:00 +15°C° 0 mm 1 mps 740 mmHg 89%
    21:00 +15°C° 0 mm 1 mps 739 mmHg 90%
    22:00 +14°C° 0 mm 1 mps 739 mmHg 91%
    23:00 +14°C° 0 mm 1 mps 739 mmHg 93%

    25 July, Thursday

    Time Temperature Precipitation Wind Pressure Humidity
    00:00 +13°C° 0 mm 1 mps 739 mmHg 93%
    01:00 +13°C° 0 mm 1 mps 739 mmHg 94%
    02:00 +13°C° 0 mm 1 mps 739 mmHg 94%
    03:00 +13°C° 0 mm 1 mps 739 mmHg 94%
    04:00 +12°C° 0 mm 0 mps 739 mmHg 93%
    05:00 +13°C° 0 mm 0 mps 739 mmHg 93%
    06:00 +14°C° 0 mm 0 mps 740 mmHg 87%
    07:00 +16°C° 0 mm 0 mps 740 mmHg 81%
    08:00 +20°C° 0 mm 1 mps 740 mmHg 74%
    09:00 +21°C° 0 mm 1 mps 740 mmHg 71%
    10:00 +21°C° 0 mm 2 mps 740 mmHg 68%
    11:00 +23°C° 0 mm 2 mps 740 mmHg 65%
    12:00 +23°C° 0.2 mm 2 mps 740 mmHg 67%
    13:00 +24°C° 0.2 mm 2 mps 740 mmHg 68%
    14:00 +24°C° 0.2 mm 3 mps 741 mmHg 70%
    15:00 +22°C° 0.7 mm 3 mps 741 mmHg 76%
    16:00 +21°C° 0.7 mm 4 mps 741 mmHg 82%
    17:00 +20°C° 0.7 mm 4 mps 741 mmHg 88%
    18:00 +19°C° 0 mm 4 mps 741 mmHg 91%
    19:00 +18°C° 0 mm 3 mps 741 mmHg 93%
    20:00 +17°C° 0 mm 3 mps 741 mmHg 96%
    21:00 +17°C° 0 mm 3 mps 741 mmHg 96%
    22:00 +16°C° 0 mm 3 mps 741 mmHg 97%
    23:00 +16°C° 0 mm 3 mps 741 mmHg 97%

    26 July, Friday

    Time Temperature Precipitation Wind Pressure Humidity
    00:00 +16°C° 0 mm 3 mps 741 mmHg 97%
    01:00 +16°C° 0 mm 3 mps 741 mmHg 97%
    02:00 +16°C° 0 mm 3 mps 741 mmHg 97%
    03:00 +16°C° 0 mm 3 mps 741 mmHg 97%
    04:00 +17°C° 0 mm 4 mps 741 mmHg 96%
    05:00 +17°C° 0 mm 4 mps 741 mmHg 95%
    06:00 +18°C° 0.1 mm 4 mps 741 mmHg 93%
    07:00 +19°C° 0.1 mm 4 mps 741 mmHg 90%
    08:00 +20°C° 0.1 mm 4 mps 741 mmHg 88%
    09:00 +21°C° 0.3 mm 4 mps 741 mmHg 86%
    10:00 +21°C° 0.3 mm 4 mps 741 mmHg 83%
    11:00 +22°C° 0.3 mm 4 mps 741 mmHg 81%
    12:00 +22°C° 0.5 mm 3 mps 741 mmHg 84%
    13:00 +21°C° 0.5 mm 3 mps 741 mmHg 86%
    14:00 +21°C° 0.5 mm 2 mps 741 mmHg 88%
    15:00 +21°C° 0.8 mm 2 mps 741 mmHg 88%
    16:00 +21°C° 0.8 mm 3 mps 741 mmHg 88%
    17:00 +21°C° 0.8 mm 3 mps 740 mmHg 87%
    18:00 +21°C° 0.3 mm 2 mps 741 mmHg 89%
    19:00 +20°C° 0.3 mm 2 mps 741 mmHg 90%
    20:00 +19°C° 0.3 mm 2 mps 741 mmHg 92%
    21:00 +18°C° 0 mm 2 mps 741 mmHg 93%
    22:00 +18°C° 0 mm 3 mps 740 mmHg 93%
    23:00 +18°C° 0 mm 3 mps 740 mmHg 94%

    27 July, Saturday

    Time Temperature Precipitation Wind Pressure Humidity
    00:00 +18°C° 0.1 mm 3 mps 740 mmHg 94%
    01:00 +18°C° 0.1 mm 3 mps 740 mmHg 94%
    02:00 +18°C° 0.1 mm 4 mps 740 mmHg 94%
    03:00 +18°C° 0 mm 4 mps 740 mmHg 95%
    04:00 +18°C° 0 mm 3 mps 740 mmHg 95%
    05:00 +18°C° 0 mm 3 mps 740 mmHg 96%
    06:00 +19°C° 0 mm 3 mps 740 mmHg 92%
    07:00 +20°C° 0 mm 4 mps 740 mmHg 89%
    08:00 +21°C° 0 mm 4 mps 740 mmHg 85%
    09:00 +22°C° 0.5 mm 4 mps 740 mmHg 81%
    10:00 +23°C° 0.5 mm 4 mps 740 mmHg 77%
    11:00 +25°C° 0.5 mm 4 mps 740 mmHg 73%
    12:00 +26°C° 0.5 mm 4 mps 740 mmHg 72%
    13:00 +26°C° 0.5 mm 5 mps 740 mmHg 70%
    14:00 +27°C° 0.5 mm 5 mps 740 mmHg 69%
    15:00 +27°C° 0.1 mm 4 mps 740 mmHg 70%
    16:00 +27°C° 0.1 mm 4 mps 740 mmHg 71%
    17:00 +27°C° 0.1 mm 3 mps 739 mmHg 72%
    18:00 +25°C° 0.1 mm 3 mps 740 mmHg 77%
    19:00 +22°C° 0.1 mm 3 mps 740 mmHg 83%
    20:00 +20°C° 0.1 mm 2 mps 740 mmHg 88%
    21:00 +20°C° 0 mm 2 mps 740 mmHg 90%
    22:00 +19°C° 0 mm 3 mps 740 mmHg 92%
    23:00 +19°C° 0 mm 3 mps 740 mmHg 94%
    Show more